TimeEST,TemperatureF,Dew PointF,Humidity,Sea Level PressureIn,VisibilityMPH,Wind Direction,Wind SpeedMPH,Gust SpeedMPH,PrecipitationIn,Events,Conditions,WindDirDegrees,DateUTC
12:53 AM,34.0,15.1,46,29.88,10.0,West,26.5,34.5,N/A,,Mostly Cloudy,280,2013-02-20 05:53:00
1:53 AM,33.1,15.1,48,29.90,10.0,West,19.6,26.5,N/A,,Overcast,280,2013-02-20 06:53:00
2:53 AM,32.0,12.0,44,29.90,10.0,West,19.6,34.5,N/A,,Mostly Cloudy,270,2013-02-20 07:53:00
3:53 AM,30.9,10.9,43,29.92,10.0,WNW,15.0,33.4,N/A,,Mostly Cloudy,290,2013-02-20 08:53:00
4:53 AM,30.9,10.0,42,29.95,10.0,West,19.6,29.9,N/A,,Overcast,280,2013-02-20 09:53:00
5:53 AM,28.9,10.0,45,29.97,10.0,WNW,19.6,28.8,N/A,,Overcast,300,2013-02-20 10:53:00
6:53 AM,28.9,9.0,43,30.00,10.0,WNW,11.5,32.2,N/A,,Overcast,290,2013-02-20 11:53:00
7:53 AM,28.0,10.0,47,30.02,10.0,West,9.2,19.6,N/A,,Overcast,280,2013-02-20 12:53:00
8:53 AM,28.9,10.0,45,30.03,10.0,WNW,13.8,17.3,N/A,,Overcast,290,2013-02-20 13:53:00
9:53 AM,28.9,12.0,49,30.01,10.0,WNW,15.0,20.7,N/A,,Overcast,290,2013-02-20 14:53:00
10:53 AM,30.0,10.9,45,30.02,10.0,WNW,17.3,26.5,N/A,,Overcast,290,2013-02-20 15:53:00
11:53 AM,30.0,10.9,45,30.03,10.0,West,13.8,24.2,N/A,,Overcast,280,2013-02-20 16:53:00
12:53 PM,30.9,10.0,42,30.02,10.0,WNW,15.0,21.9,N/A,,Overcast,290,2013-02-20 17:53:00
1:53 PM,33.1,10.9,40,30.02,10.0,West,17.3,23.0,N/A,,Overcast,270,2013-02-20 18:53:00
2:53 PM,33.1,10.9,40,30.03,10.0,WNW,15.0,26.5,N/A,,Mostly Cloudy,290,2013-02-20 19:53:00
3:53 PM,33.1,10.9,40,30.07,10.0,NW,20.7,28.8,N/A,,Overcast,310,2013-02-20 20:53:00
4:53 PM,28.9,8.1,41,30.10,10.0,WNW,20.7,29.9,N/A,,Scattered Clouds,300,2013-02-20 21:53:00
5:53 PM,28.0,8.1,43,30.14,10.0,NW,12.7,20.7,N/A,,Overcast,310,2013-02-20 22:53:00
6:53 PM,26.1,6.1,43,30.16,10.0,NW,11.5,-,N/A,,Overcast,310,2013-02-20 23:53:00
7:53 PM,25.0,6.1,45,30.16,10.0,WNW,13.8,25.3,N/A,,Scattered Clouds,300,2013-02-21 00:53:00
8:53 PM,24.1,6.1,46,30.17,10.0,WNW,15.0,24.2,N/A,,Partly Cloudy,300,2013-02-21 01:53:00
9:53 PM,24.1,6.1,46,30.18,10.0,WNW,11.5,19.6,N/A,,Overcast,290,2013-02-21 02:53:00
10:53 PM,25.0,7.0,46,30.18,10.0,WNW,12.7,23.0,N/A,,Overcast,290,2013-02-21 03:53:00
11:53 PM,25.0,7.0,46,30.17,10.0,WNW,12.7,20.7,N/A,,Overcast,300,2013-02-21 04:53:00